Location: Bratislava
(0.0000°N, 17.1167°E)
Time: 13:28:04
(UTC+02:00)

Daily predictions for brighter satellites

Satellite Brightness Start Highest point End
(mag) Time Altitude Azimuth Time Altitude Azimuth Time Altitude Azimuth
H-10 deb 3.6 18:52:04 10° WSW 18:56:08 77° S 19:22:27 10° E
H-10 deb 3.6 18:52:04 10° WSW 18:56:09 77° S 19:22:27 10° E
H-10 deb 3.6 18:52:05 10° WSW 18:56:09 77° S 19:22:27 10° E
H-10 deb 3.6 18:52:04 10° WSW 18:56:09 77° SSE 19:22:26 10° E
H-10 deb 3.6 18:52:04 10° WSW 18:56:09 77° SSE 19:22:27 10° E
Ariane H10-3 3.3 19:00:54 10° NW 19:03:25 32° NNE 19:10:11 10° ENE
Cosmos 1503 Rocket 4.5 19:03:49 10° S 19:08:34 37° ESE 19:13:18 10° NE
CSL-04 DEB 4.3 19:05:51 10° NNE 19:09:49 70° ESE 19:13:43 10° S
YAOGAN 1 4.5 19:09:05 10° ESE 19:10:51 12° ENE 19:12:36 10° NE
CZ-4B R/B 2.1 19:08:12 10° N 19:11:10 54° WNW 19:14:07 10° SSW
H-2A R/B 3.0 19:07:45 10° SE 19:11:41 24° ENE 19:15:34 10° NNE
Cosmos 1939 Rocket 3.2 19:08:22 10° S 19:12:31 77° W 19:16:36 10° NNW
NOSS 3-3 (A) 3.9 19:07:51 10° SSW 19:13:17 75° WNW 19:18:45 10° NNE
NOSS 3-3 (C) 3.9 19:07:55 10° SSW 19:13:23 76° WNW 19:18:53 10° NNE
Skynet4D Del rocket 3.5 19:13:20 10° SW 19:18:38 65° SSE 19:24:07 10° ENE
CZ-2C R/B 3.0 19:15:22 10° S 19:20:09 86° W 19:25:05 10° NNW
Cosmos 540 Rocket 4.4 19:15:58 10° NNE 19:20:16 28° ENE 19:24:36 10° SE
Cosmos 1766 Rocket 4.2 19:18:01 10° NNE 19:22:06 36° E 19:26:13 10° SSE
H-2A R/B 2.4 19:19:08 10° S 19:23:00 80° WSW 19:26:56 10° NNW
Meteor 2-3 Rocket 3.7 19:22:45 10° N 19:28:19 88° W 19:33:54 10° S
Cosmos 1553 Rocket 4.2 19:26:27 10° SSE 19:32:11 43° E 19:37:56 10° NNE
ISS -2.4 19:29:12 10° SW 19:32:24 43° NW 19:35:36 10° NNE
CZ-2C R/B 2.8 19:28:32 10° WSW 19:32:31 37° NW 19:36:17 10° NNE
ARIANE 5 R/B 2.2 19:25:51 10° W 19:32:55 86° N 19:34:46 16° E
Ariane H10 2.0 19:32:31 10° W 19:35:20 48° S 19:36:49 19° ESE
Cosmos 921 Rocket 4.1 19:32:58 10° NNE 19:36:16 23° E 19:38:06 17° ESE
Cosmos 1655 Rocket 4.1 19:31:59 10° N 19:38:12 84° W 19:44:30 10° S
Cosmos 1354 Rocket 3.9 19:38:15 10° S 19:43:29 82° ESE 19:48:41 10° NNE
Cosmos 1603 4.0 19:39:12 10° N 19:44:28 43° ENE 19:48:40 16° SE
CZ-2C R/B 3.7 19:39:22 10° N 19:44:45 52° WNW 19:50:12 10° SSW
Cosmos 2278 Rocket 2.8 19:40:05 10° SSE 19:45:08 33° ESE 19:50:08 10° NE
Meteor 2-16 Rocket 4.4 19:39:17 10° N 19:45:23 84° E 19:51:30 10° S
Cosmos 1437 Rocket 2.5 19:42:39 10° S 19:46:27 78° E 19:50:16 10° N
NOSS 3-1 (C) 4.5 19:41:28 10° NNW 19:50:24 81° WSW 19:59:24 10° SSE
Cosmos 1606 2.7 19:46:56 10° S 19:50:42 79° W 19:54:26 10° N
CZ-3 Stage 3 4.3 19:48:44 10° WSW 19:51:06 21° S 19:55:01 13° SSE
Centaur AC-119 1.8 19:50:37 10° NW 19:52:41 58° NNE 19:53:59 31° E
ATLAS 5 CENTAUR R/B 3.8 19:49:08 10° NNW 19:53:58 65° ENE 20:14:11 10° SSE
ERS-2 1.9 19:53:35 10° NNE 19:57:11 75° ESE 20:00:49 10° S
FALCON 9 DEB 3.1 19:53:57 10° NNW 19:57:20 65° NE 19:58:18 41° ESE
Ariane H10 3.1 19:56:19 10° W 19:59:21 65° S 20:01:34 29° ESE
Cosmos 1408 Rocket 3.7 19:56:04 10° N 20:00:23 52° E 20:02:44 25° SSE
GENESIS II 4.1 19:59:31 10° NNW 20:03:20 82° WSW 20:05:08 30° SSE
ARIANE 5 DEB (SYLDA) 3.5 20:02:09 10° W 20:02:37 16° WNW 20:02:37 16° WNW
Meteosat 1 Rocket2 2.5 20:02:30 10° WSW 20:06:06 87° NNW 20:07:45 33° ENE
CZ-4 R/B 1.5 20:04:35 13° S 20:08:14 78° WSW 20:12:19 10° NNW
NOAA 15 4.5 20:06:47 15° SSE 20:11:13 82° ENE 20:16:26 10° N
Intercosmos 24 4.2 20:06:35 10° S 20:12:15 62° E 20:16:16 10° NNE
Cosmos 1943 3.1 20:10:01 10° NNW 20:15:42 89° WSW 20:19:12 24° SSE
Cosmos 1933 3.2 20:15:50 51° SSE 20:16:41 71° E 20:20:42 10° N
Cosmos 1862 3.2 20:15:30 10° N 20:19:32 87° E 20:20:17 58° S
GPS 2-15 Rocket1 3.7 20:17:55 10° SW 20:22:23 43° SSE 20:22:23 43° SSE
Ariane 42L Rocket 4.4 20:18:44 10° W 20:25:12 64° N 20:32:22 25° ENE
Cosmos 841 Rocket 4.3 20:24:53 10° NNW 20:29:47 47° WSW 20:33:21 18° S
HJ-1C 4.3 20:30:24 46° WNW 20:30:24 46° WNW 20:33:08 10° NNW
Cosmos 1743 Rocket 4.3 20:32:38 10° N 20:35:39 43° N 20:35:39 43° N
Cosmos 883 Rocket 4.3 20:35:05 43° SSE 20:37:11 70° E 20:43:26 10° N
Centaur AC-64 3.0 20:34:00 10° WNW 20:38:55 52° WNW 20:38:55 52° WNW
Centaur D AC-28 4.0 20:36:35 10° SW 20:44:02 24° S 20:44:02 24° S
CZ-3B R/B 3.6 20:27:34 10° WSW 20:44:58 64° SSE 20:46:56 53° ESE
ARGOS 4.2 20:41:31 16° SSW 20:45:26 41° WSW 20:50:26 10° NNW
Cosmos 1242 Rocket 4.5 20:45:01 26° WSW 20:45:39 28° W 20:48:45 10° NNW
Lacrosse 5 rocket 4.4 20:44:39 10° WSW 20:46:05 11° WSW 20:47:32 10° SW
H-2A R/B 4.4 20:47:34 10° SW 20:50:50 18° WSW 20:54:06 10° WNW
Okean-O 4.3 20:52:43 26° SW 20:53:53 30° WSW 20:57:45 10° NW
ARIANE 5 R/B 3.1 20:28:45 10° W 20:55:48 86° N 20:56:15 78° ENE
SL-08 R/B 4.5 20:54:31 10° N 21:00:50 81° W 21:00:50 81° W
Cosmos 2315 Rocket 4.4 21:14:51 60° WNW 21:14:51 60° WNW 21:20:34 10° N
